SCP
0 0 0 0 0 0 0 0 0 0 0 0 0 0 -0 0 0 0 -0 0 0 0 0 0 0 0 0 0 0 0 0 0 0 0 0 0 0 0 0 0 0 0 0 0 0 0 0 0 0 0 0 0 0 0
0 0 0 0 0 0 0 0 0 0 0 0 -0 -0 -0 -0 0 -0 -0 0 0 0 0 0 0 0 0 0 0 0 0 0 0 0 0 0 0 0 0 0 0 0 0 0 0 0 0 0 0 0 0 0 0 0
0 0 0 0 0 0 0 0 0 0 -0 0 -0 0 -0 -0 -0 -0 -0 -0 -0 0 0 0 0 0 0 -0 0 0 0 0 0 0 0 0 0 0 0 0 0 0 0 0 0 0 0 0 0 0 0 0 0 0
0 0 0 0 0 0 0 0 -0 0 -0 -0 0 -0 -0 -0 0 0 -0 0 0 0 0 0 0 0 0 0 0 0 0 0 0 0 0 0 0 0 0 0 0 0 0 0 0 0 0 0 0 0 0 0 0 0
0 0 0 0 0 0 0 0 0 0 -0 -0 0 -0 -0 -0 0 0 -0 -0 -0 0 0 0 0 0 0 0 0 0 0 0 0 0 0 0 0 0 0 0 0 0 0 0 0 0 0 0 0 0 0 0 0 -0
0 0 0 0 0 0 0 0 0 -0 -0 0 -0 -0 -0 -0 -0 -0 0 0 0 0 0 0 0 0 0 0 0 0 0 0 0 0 0 0 0 0 0 0 0 0 0 0 0 0 0 0 0 0 0 0 -0 -0
0 0 0 0 0 0 -0 0 -0 -0 -0 -0 -0 -0 -0 -0 0 -0 0 0 0 0 0 0 0 0 0 0 0 0 0 0 0 0 0 0 0 0 0 0 0 0 0 0 0 0 0 0 0 0 0 0 -0 -0
0 0 0 -0 -0 0 -0 -0 -0 -0 -0 -0 -0 -0 -0 -0 0 0 0 0 0 0 0 0 0 0 0 0 0 0 0 0 0 0 0 0 0 0 0 0 0 0 0 0 0 0 0 0 0 0 0 0 0 -0
0 0 -0 -0 -0 0 -0 -0 -0 -0 -0 -0 -0 -0 -0 -0 0 0 -0 0 0 0 0 0 0 0 0 0 0 0 0 0 0 0 0 0 0 0 0 0 0 0 0 0 0 0 0 0 0 0 0 0 -0 -0
0 0 0 -0 -0 -0 0 -0 -0 -0 -0 -0 -0 -0 0 -0 0 0 0 0 0 0 0 0 0 0 0 0 0 0 0 0 0 0 0 0 0 -0 -0 0 0 0 -0 -0 0 0 0 0 0 0 0 0 -0 -0
0 0 0 -0 -0 -0 -0 -0 -0 -0 -0 0 0 0 0 0 0 0 0 0 0 0 0 0 0 0 0 0 0 0 0 0 0 0 0 0 0 -0 0 0 0 0 0 0 0 0 0 0 0 0 0 -0 -0 -0
-0 0 -0 -0 -0 -0 -0 -0 -0 -0 0 0 0 0 0 0 0 0 0 0 0 0 0 0 0 0 0 0 0 0 0 0 0 0 -0 0 -0 0 0 0 0 -0 0 0 0 0 0 0 0 0 -0 -0 -0 -0
0 -0 -0 -0 -0 -0 -0 -0 -0 -0 -0 0 0 -0 0 0 0 0 0 0 0 0 0 0 0 0 0 0 0 0 0 0 0 -0 0 0 0 0 0 -0 -0 0 0 0 0 0 0 0 0 -0 -0 -0 -0 -0
-0 -0 -0 -0 -0 -0 -0 -0 -0 -0 0 0 0 -0 0 0 0 0 0 0 -0 0 0 0 0 0 0 0 0 -0 -0 0 0 0 0 0 0 0 -0 0 0 0 0 0 0 0 0 0 -0 -0 -0 0 -0 -0
-0 -0 -0 0 -0 -0 -0 0 -0 0 0 0 0 0 0 0 0 0 0 0 0 0 0 0 0 0 -0 -0 -0 0 0 0 -0 0 -0 -0 -0 -0 -0 -0 -0 -0 -0 -0 0 0 0 -0 0 -0 -0 -0 0 -0
-0 -0 0 -0 -0 -0 0 0 -0 0 0 0 0 0 0 0 0 0 0 0 0 -0 0 0 0 0 0 0 0 0 0 0 -0 0 0 -0 -0 -0 -0 -0 -0 -0 -0 0 0 0 -0 0 0 0 0 0 -0 0
-0 0 -0 -0 -0 0 -0 0 0 0 0 0 0 0 0 0 0 0 0 0 0 0 0 0 0 0 0 0 0 0 -0 0 0 -0 0 -0 -0 -0 -0 -0 -0 0 0 0 0 -0 -0 0 0 -0 0 0 -0 -0
0 -0 -0 -0 0 -0 -0 0 0 0 0 0 0 0 0 0 0 0 0 0 0 0 0 0 0 0 0 0 0 0 -0 0 -0 -0 -0 -0 -0 -0 -0 -0 -0 0 0 0 0 0 -0 -0 0 -0 -0 0 -0 -0
0 -0 -0 -0 -0 -0 0 0 0 0 0 0 0 0 0 0 0 -0 0 0 0 0 0 0 0 0 0 0 -0 -0 -0 0 0 0 0 0 -0 -0 0 0 0 -0 -0 0 0 0 -0 -0 0 -0 0 0 0 -0
0 0 -0 -0 0 0 0 0 0 0 0 0 0 0 0 0 0 0 0 0 0 0 0 0 0 0 0 0 -0 -0 -0 0 0 0 0 -0 -0 0 0 0 0 0 0 0 0 0 -0 -0 0 0 0 0 0 0
0 0 0 0 0 0 0 0 0 0 0 0 -0 -0 -0 -0 -0 0 0 0 0 0 0 0 0 0 -0 0 0 0 0 0 0 0 0 0 -0 -0 0 0 -0 0 0 0 0 0 -0 -0 0 0 0 0 0 0
0 0 0 0 0 0 0 0 0 0 0 0 0 -0 -0 -0 -0 -0 -0 0 0 0 0 0 0 0 -0 -0 -0 0 0 -0 -0 0 0 0 -0 0 0 0 0 0 0 0 -0 0 0 0 0 0 0 0 0 0
0 0 0 0 0 0 0 0 0 0 0 0 0 -0 -0 -0 -0 -0 0 0 0 0 0 0 0 0 0 0 -0 -0 0 -0 -0 -0 -0 -0 0 0 0 0 0 -0 -0 0 0 0 0 0 0 0 0 0 0 0
0 0 0 -0 0 0 0 0 0 0 0 0 0 -0 -0 -0 -0 0 0 0 0 0 0 0 -0 0 0 0 -0 -0 -0 -0 -0 -0 -0 -0 -0 0 0 -0 -0 -0 0 0 0 0 0 0 0 0 0 0 0 0
0 0 0 -0 -0 0 0 0 0 0 0 0 0 0 -0 -0 -0 -0 0 0 0 0 0 0 0 0 0 0 0 -0 -0 0 -0 -0 0 -0 -0 -0 -0 -0 -0 0 0 0 0 0 0 0 0 0 0 0 0 0
-0 0 0 -0 -0 0 0 0 0 0 0 0 0 -0 -0 -0 0 0 0 0 0 0 0 0 -0 0 0 0 0 -0 -0 0 -0 -0 0 -0 -0 -0 -0 -0 0 0 0 0 0 0 0 0 0 0 0 0 0 0
0 0 0 0 0 0 0 0 0 0 0 0 0 -0 -0 0 0 0 0 0 0 0 0 0 -0 -0 -0 0 0 0 0 0 0 0 -0 -0 -0 -0 0 -0 0 0 0 0 0 0 0 0 0 0 0 0 0 0
0 0 0 0 0 0 0 0 0 0 0 0 -0 -0 0 0 0 0 0 0 0 0 0 0 -0 -0 -0 0 0 0 0 -0 -0 -0 -0 -0 -0 0 0 0 0 0 0 0 0 0 0 0 0 0 0 0 0 0
0 0 0 0 0 0 0 0 0 -0 -0 0 -0 -0 0 0 0 0 0 0 0 0 0 0 0 -0 -0 0 0 0 -0 -0 -0 -0 -0 0 0 0 0 0 0 0 0 0 0 0 0 0 0 0 0 0 0 0
0 0 0 -0 0 0 0 0 -0 -0 -0 -0 0 -0 -0 0 0 0 0 0 0 0 0 0 0 0 0 0 0 0 0 0 -0 -0 -0 0 0 0 0 0 0 0 0 0 0 0 0 0 0 0 0 0 0 0
0 0 0 0 0 0 0 -0 -0 -0 0 0 0 0 0 0 0 0 0 0 0 0 0 0 0 0 0 0 -0 -0 0 0 -0 -0 0 0 0 0 0 0 0 0 0 0 0 0 0 0 0 0 0 0 0 0
0 0 0 0 0 -0 -0 -0 -0 -0 0 0 0 0 0 0 0 0 0 0 0 0 0 0 0 0 0 0 0 0 -0 -0 0 0 0 0 0 0 0 0 0 0 0 0 0 0 0 0 0 0 0 0 0 0
0 0 0 0 0 -0 -0 -0 -0 -0 0 0 0 0 0 0 0 0 0 0 0 -0 -0 0 0 0 0 0 0 0 0 0 0 0 0 0 0 0 0 0 0 0 0 0 0 0 0 0 0 0 0 0 0 0
Wind_Speed_500mb
55 53 51 49 47 49 50 46 42 48 48 47 40 32 30 28 21 25 32 32 25 10 16 19 14 10 5 4 5 3 3 6 6 6 5 4 3 3 2 9 14 9 9 5 6 4 11 7 3 2 4 8 10 5
53 51 52 49 43 48 48 46 40 43 47 48 44 36 30 26 19 21 29 21 27 8 12 11 16 18 16 7 4 1 3 3 3 7 3 4 4 4 3 4 7 5 8 9 11 7 6 11 15 8 7 11 7 10
54 53 51 45 41 46 48 49 43 45 49 51 48 39 36 26 14 20 30 22 15 13 12 11 4 4 7 29 17 2 3 4 5 7 6 3 6 3 4 2 3 5 7 4 5 2 9 15 20 20 19 18 13 19
53 55 54 47 41 46 48 47 41 47 52 48 50 37 29 30 21 20 20 12 7 7 1 3 9 7 7 6 31 4 5 10 14 8 8 4 4 1 2 3 3 6 8 8 3 4 12 15 17 18 17 15 19 26
52 53 51 43 45 45 46 41 43 50 51 42 35 24 24 23 20 23 24 14 13 8 2 6 3 4 15 20 19 12 12 14 7 7 6 1 1 3 1 2 4 8 10 7 9 15 14 17 24 15 14 19 23 30
51 47 43 42 45 46 47 44 41 47 47 37 21 27 21 13 21 13 7 13 20 18 6 3 4 7 22 20 22 18 14 12 10 7 3 3 1 2 0 3 6 9 10 11 8 24 26 38 24 17 20 21 22 25
50 47 40 39 42 46 46 45 39 45 45 28 25 21 19 17 14 8 5 15 8 15 2 1 3 7 27 21 12 12 13 11 8 6 3 2 4 3 1 4 6 3 9 14 32 43 34 26 18 21 24 26 28 26
46 48 37 37 41 43 45 45 34 42 35 26 25 22 21 13 10 6 12 16 8 8 4 2 2 5 10 7 6 5 6 6 8 4 2 2 1 2 6 17 15 7 22 38 43 9 27 34 30 24 19 25 29 36
42 46 45 36 39 39 42 36 31 33 29 26 25 18 12 9 12 9 11 17 15 5 5 3 2 2 7 9 7 5 4 3 2 0 2 6 5 7 12 11 7 28 18 37 29 37 34 30 28 18 14 21 26 33
40 41 42 40 38 36 36 30 34 27 27 21 15 9 9 7 3 6 7 4 9 7 6 4 2 3 6 6 4 5 1 2 2 4 9 4 6 28 21 11 18 23 41 44 40 30 31 28 21 16 14 19 32 33
40 38 39 40 34 36 28 22 26 25 19 16 11 10 9 5 10 6 6 5 5 5 4 1 1 4 7 4 3 1 2 1 2 4 6 4 5 5 14 35 34 32 21 24 10 24 24 30 24 18 12 13 25 34
40 41 38 34 34 32 17 18 25 18 15 11 10 9 4 8 4 3 3 1 1 3 4 5 4 5 6 5 4 3 2 2 4 11 4 4 2 5 28 35 19 32 31 21 25 33 31 25 22 21 16 11 16 30
41 41 32 31 31 26 17 13 16 14 13 9 6 5 6 6 5 4 3 3 3 5 9 8 5 3 5 5 5 2 2 5 3 5 4 1 5 20 29 29 34 38 38 35 34 30 25 21 18 17 15 11 14 24
38 34 24 24 24 17 10 8 8 8 8 7 8 9 1 2 3 4 0 3 7 5 16 19 7 6 5 4 3 3 5 3 4 6 3 3 8 30 39 41 43 38 32 33 29 24 17 13 15 11 9 8 12 26
30 21 11 18 16 14 6 6 5 11 6 5 4 5 4 9 12 19 18 12 5 14 25 14 7 5 2 2 3 3 5 7 6 2 5 23 17 42 40 42 40 34 30 27 23 17 14 14 15 13 13 10 15 27
23 14 6 14 10 11 9 8 9 11 6 4 4 6 10 12 5 10 7 2 11 14 11 5 4 3 5 4 7 9 6 4 3 4 30 35 43 41 40 39 35 34 29 27 22 16 12 16 15 13 12 8 17 28
23 7 8 11 7 7 8 9 8 4 4 6 7 15 20 18 13 8 3 7 13 11 2 2 5 6 2 5 5 6 3 3 19 35 43 50 46 44 40 36 33 30 27 23 20 15 15 21 16 11 9 5 12 26
21 9 7 9 7 2 5 7 6 5 5 8 9 18 17 18 11 7 3 9 12 4 3 3 6 5 3 5 2 2 13 34 43 49 43 37 43 41 37 36 30 24 22 23 18 17 16 14 13 6 8 8 5 15
13 11 6 4 3 4 3 5 4 6 8 15 18 22 12 13 10 5 2 3 5 5 5 5 4 2 3 2 2 33 45 52 46 36 38 40 38 36 34 32 28 23 19 19 18 14 16 14 11 9 8 6 9 16
12 10 7 4 3 5 4 4 5 8 9 9 13 16 10 5 7 4 3 8 2 2 4 2 1 6 4 3 25 47 50 44 50 49 40 34 30 32 28 28 25 21 20 21 19 14 13 16 15 9 6 9 13 19
10 6 5 6 4 8 5 5 6 8 10 9 12 16 2 2 5 8 9 16 2 2 1 0 9 9 8 13 31 44 46 46 46 48 45 42 34 31 30 30 24 20 18 20 17 16 11 14 13 9 9 14 18 20
5 7 7 5 4 4 8 8 9 13 8 11 14 10 2 1 5 6 12 4 5 3 4 11 21 10 15 22 32 36 37 35 37 38 34 32 25 25 29 31 24 18 13 12 11 9 9 11 9 9 12 15 17 18
5 6 3 4 5 5 8 5 6 5 2 7 7 5 2 2 3 9 5 3 4 1 10 5 15 19 24 26 29 32 30 34 35 35 29 24 26 26 27 23 18 7 8 11 8 4 5 6 4 8 13 14 16 18
7 5 6 7 10 7 6 5 6 6 5 2 1 5 1 1 4 4 4 5 4 3 11 5 6 30 33 32 34 32 35 34 34 30 26 28 30 29 25 22 14 8 5 5 4 4 7 4 3 9 13 15 17 19
6 7 7 7 9 6 5 5 4 0 5 5 4 4 3 2 1 3 3 4 7 9 4 2 17 35 45 39 39 38 33 29 27 25 28 29 30 33 26 19 12 7 7 6 1 1 2 2 6 10 12 14 17 18
8 10 12 11 7 7 6 3 5 6 5 5 5 5 7 3 3 3 3 9 12 17 11 9 13 22 41 43 41 36 31 28 24 25 33 33 25 11 19 16 10 6 5 4 5 2 2 3 7 11 12 13 15 15
6 8 12 12 8 6 6 0 4 1 5 2 2 2 3 3 3 1 7 12 26 20 4 5 24 28 35 36 35 33 30 28 32 23 31 30 19 12 7 4 5 7 7 6 6 6 5 4 7 8 10 11 13 16
12 7 7 6 8 6 3 3 2 2 4 10 8 3 2 3 2 3 9 35 17 1 5 20 33 36 35 31 31 31 31 34 34 22 31 26 24 17 11 10 11 12 11 10 8 7 7 8 8 9 11 14 17 19
9 8 8 6 5 3 3 1 2 1 4 6 6 1 3 4 5 2 18 31 26 10 5 25 34 32 39 37 35 34 33 36 35 31 35 36 32 25 17 7 8 9 7 6 4 4 7 8 9 11 13 14 16 17
8 14 7 6 4 5 6 6 3 5 4 5 6 6 7 8 7 6 21 27 16 10 16 20 27 39 40 34 38 38 31 26 19 12 17 23 23 21 14 7 3 3 3 4 4 4 6 7 9 10 11 12 13 13
6 15 7 4 4 6 7 5 7 9 8 6 7 6 7 7 8 13 14 21 31 27 28 33 36 43 33 35 38 32 28 30 22 18 14 15 15 16 12 9 5 2 0 2 2 3 5 7 6 6 6 7 9 11
13 13 11 6 5 9 7 5 5 5 6 6 6 5 4 6 7 10 26 21 23 38 34 39 42 36 34 28 19 19 11 16 27 19 15 13 16 13 10 9 7 4 2 2 3 3 3 3 3 4 5 7 10 12
7 7 7 8 8 7 8 7 4 4 6 5 7 11 10 7 9 10 27 19 28 50 51 44 36 37 30 26 20 21 18 14 19 18 16 12 10 10 11 10 8 4 2 2 1 2 2 3 3 4 5 7 9 11
Wind_Direction_500mb
325 324 323 321 321 327 328 322 326 328 333 331 323 319 317 315 301 298 279 290 266 244 265 268 265 257 238 192 172 283 37 350 38 69 112 212 128 294 46 127 156 150 151 161 145 186 287 339 40 103 169 74 101 68
329 327 327 326 325 327 325 325 313 330 328 323 321 308 307 302 295 298 291 297 280 243 268 283 271 256 241 257 264 120 120 77 155 91 34 88 65 20 33 161 81 150 160 175 174 201 195 37 76 96 103 113 58 13
333 333 330 330 327 327 331 327 323 326 320 322 315 300 295 310 271 307 289 314 285 271 285 285 6 327 233 228 218 188 128 120 104 91 135 130 84 123 115 273 88 87 140 109 86 192 157 121 83 88 88 81 40 5
334 331 331 331 331 333 330 329 326 322 323 319 318 310 297 305 270 315 272 340 279 292 306 15 59 66 12 213 194 192 87 126 112 79 76 98 109 164 193 216 152 203 131 151 185 84 114 82 128 115 84 50 22 11
333 331 328 332 333 330 330 333 333 333 333 319 323 317 290 297 293 295 287 282 298 270 270 329 37 57 88 106 138 122 135 132 88 67 59 109 116 73 274 80 263 193 172 151 216 193 120 126 128 108 67 42 26 16
332 331 333 332 329 331 331 332 334 335 342 337 331 320 312 298 314 313 289 246 227 225 317 34 30 150 143 133 116 108 95 74 74 78 86 29 12 74 274 257 254 213 197 193 144 143 132 134 121 96 75 54 30 17
333 332 330 332 331 335 336 333 337 343 349 334 335 333 338 321 304 275 314 341 224 196 159 68 140 108 153 129 95 76 56 68 64 89 67 4 357 151 271 252 291 191 137 137 145 132 120 135 135 111 83 61 44 29
332 329 328 331 332 333 334 332 335 346 340 336 337 334 335 341 316 306 304 296 152 143 160 104 35 140 164 91 74 89 68 43 45 85 121 171 34 83 249 249 256 116 138 148 149 150 156 140 138 124 86 59 45 29
335 342 339 335 333 333 333 334 338 338 336 332 333 329 347 6 10 10 37 82 126 84 120 92 76 99 127 71 80 68 71 72 29 318 247 149 222 223 227 232 143 167 145 156 138 129 134 138 140 131 84 54 38 27
330 333 337 335 331 333 334 339 341 341 337 341 355 359 11 26 67 22 23 35 28 35 38 80 53 76 144 131 109 125 134 185 226 209 153 217 249 257 244 196 139 147 151 141 134 133 139 140 138 129 108 63 40 28
331 327 327 330 331 334 335 341 350 345 350 353 23 14 31 27 2 17 25 24 340 23 92 93 126 55 46 98 116 151 143 218 258 214 199 236 258 254 165 170 159 152 140 175 127 140 143 133 115 96 113 68 36 28
324 326 325 329 327 330 328 319 357 358 4 14 354 347 343 357 350 334 26 340 25 276 170 137 162 76 78 92 102 138 279 149 260 145 217 238 243 252 160 154 157 172 179 161 143 139 137 126 95 72 76 68 36 22
317 319 324 323 322 318 321 322 347 355 342 330 347 15 355 335 352 324 31 358 307 173 158 150 104 98 105 86 59 140 261 237 73 214 238 323 287 146 150 147 139 141 138 131 128 125 124 124 103 70 67 57 43 23
319 323 334 347 347 336 325 324 321 332 340 345 349 331 49 300 280 299 130 347 294 257 161 136 81 63 69 90 177 205 228 312 260 228 191 131 128 139 143 142 137 134 129 128 125 125 123 125 119 82 65 67 49 30
324 328 341 354 351 5 14 79 26 351 337 341 345 285 249 249 270 285 276 300 239 177 147 109 99 111 118 155 206 274 251 235 234 192 124 148 147 141 139 144 137 135 138 140 138 131 129 130 133 96 73 89 49 34
330 322 318 344 336 336 7 346 327 340 327 293 257 286 291 289 307 330 294 125 125 131 114 135 123 184 201 206 205 207 224 247 127 126 141 150 146 138 136 137 137 132 127 130 130 121 120 147 142 102 95 88 47 33
328 299 309 330 317 311 288 316 335 326 295 292 265 267 275 282 275 288 317 105 165 148 93 194 213 231 147 216 228 192 295 97 125 130 149 150 143 142 138 136 138 139 138 137 136 120 106 152 117 92 83 122 39 30
317 254 319 326 334 359 299 312 334 310 282 277 287 291 319 297 260 330 48 185 168 149 215 249 266 235 251 300 59 69 98 124 131 130 131 141 141 137 136 133 132 130 133 146 142 116 96 118 174 72 87 114 79 26
287 236 259 257 331 345 320 315 330 298 274 293 301 325 315 318 332 23 69 187 310 240 289 300 273 288 312 273 115 132 137 135 132 136 135 139 144 143 142 141 130 122 116 133 145 127 104 93 80 59 99 99 47 30
225 229 253 179 268 313 303 275 291 275 273 317 311 348 350 23 87 113 27 355 322 218 212 243 275 306 311 352 160 150 147 144 138 133 134 138 146 147 142 150 141 126 117 131 133 110 90 84 71 65 88 61 32 29
193 223 219 203 281 300 276 280 260 258 296 285 310 341 331 298 320 335 334 342 326 233 105 266 30 0 83 126 159 156 155 156 151 143 144 140 137 139 141 150 146 133 121 132 132 118 91 71 73 68 46 44 30 22
269 188 216 223 277 258 265 247 261 295 273 289 316 331 310 286 329 335 332 327 319 351 15 33 23 73 128 139 159 164 159 158 147 144 145 147 147 157 159 158 163 150 139 129 136 122 97 94 79 64 36 28 13 21
204 187 267 227 275 262 272 234 260 252 260 304 315 327 16 334 333 338 322 296 295 344 201 326 18 133 134 138 150 152 154 152 149 148 149 152 149 152 161 163 175 159 143 136 146 141 100 105 84 29 15 8 10 16
174 216 234 219 214 271 283 256 237 261 266 283 345 272 211 25 352 349 296 298 338 147 170 336 107 144 141 144 146 145 148 155 155 161 167 160 156 152 154 150 147 133 89 104 157 163 142 135 29 2 10 14 18 17
214 227 207 215 213 227 243 249 228 295 248 218 209 255 258 156 221 201 266 277 211 192 185 189 151 163 158 156 156 159 164 170 167 166 171 186 173 157 155 153 152 125 67 3 224 173 142 46 0 6 9 13 17 19
236 216 196 208 210 203 226 228 230 226 218 232 218 176 179 168 239 244 253 197 190 168 90 130 174 175 174 169 168 178 185 193 193 175 170 180 180 155 168 159 148 104 96 26 26 35 69 29 15 13 15 22 25 30
244 252 227 229 240 228 242 307 312 223 256 247 266 211 219 226 253 276 290 202 184 181 215 205 186 174 171 180 186 190 196 195 195 184 182 181 174 151 83 72 104 94 99 90 80 72 63 41 15 22 30 32 39 43
240 253 215 207 210 233 239 212 142 284 325 332 314 205 239 290 255 317 140 149 161 91 262 188 184 188 190 190 193 197 193 190 189 194 175 170 163 164 157 121 78 78 92 99 84 75 57 28 24 34 38 41 43 43
232 223 212 222 205 173 212 343 58 124 349 331 338 6 322 275 261 236 169 185 197 283 297 182 183 191 188 187 192 194 198 199 197 184 184 176 173 172 168 145 79 76 80 63 69 61 33 35 39 37 37 36 34 32
242 198 182 201 202 181 183 181 247 286 294 307 311 297 295 267 262 240 187 194 191 203 183 182 184 190 179 182 186 184 182 183 189 205 206 207 195 183 173 166 125 40 34 20 24 23 27 37 36 36 36 33 32 29
190 172 146 130 154 176 180 193 267 270 269 264 256 269 284 284 243 210 192 186 190 178 188 190 188 172 189 194 179 171 179 182 172 172 173 178 182 181 182 188 207 231 335 356 3 30 41 37 31 26 26 27 31 34
189 192 167 147 187 182 175 203 227 235 237 232 226 222 281 266 263 221 214 208 197 190 183 185 196 199 190 162 194 217 190 201 198 186 185 181 176 178 186 200 199 173 116 38 29 40 38 27 14 22 27 32 33 32
155 149 122 120 140 174 193 194 221 260 234 233 234 206 201 225 249 242 190 186 191 188 195 205 210 185 178 208 224 197 186 194 197 190 177 172 167 168 175 177 174 153 80 38 25 18 19 23 18 16 18 20 22 23
Wind_Speed_850mb
55 53 51 49 47 49 50 46 42 48 48 47 40 32 30 28 21 25 32 32 25 10 16 19 14 10 5 4 5 3 3 6 6 6 5 4 3 3 2 9 14 9 9 5 6 4 11 7 3 2 4 8 10 5
53 51 52 49 43 48 48 46 40 43 47 48 44 36 30 26 19 21 29 21 27 8 12 11 16 18 16 7 4 1 3 3 3 7 3 4 4 4 3 4 7 5 8 9 11 7 6 11 15 8 7 11 7 10
54 53 51 45 41 46 48 49 43 45 49 51 48 39 36 26 14 20 30 22 15 13 12 11 4 4 7 29 17 2 3 4 5 7 6 3 6 3 4 2 3 5 7 4 5 2 9 15 20 20 19 18 13 19
53 55 54 47 41 46 48 47 41 47 52 48 50 37 29 30 21 20 20 12 7 7 1 3 9 7 7 6 31 4 5 10 14 8 8 4 4 1 2 3 3 6 8 8 3 4 12 15 17 18 17 15 19 26
52 53 51 43 45 45 46 41 43 50 51 42 35 24 24 23 20 23 24 14 13 8 2 6 3 4 15 20 19 12 12 14 7 7 6 1 1 3 1 2 4 8 10 7 9 15 14 17 24 15 14 19 23 30
51 47 43 42 45 46 47 44 41 47 47 37 21 27 21 13 21 13 7 13 20 18 6 3 4 7 22 20 22 18 14 12 10 7 3 3 1 2 0 3 6 9 10 11 8 24 26 38 24 17 20 21 22 25
50 47 40 39 42 46 46 45 39 45 45 28 25 21 19 17 14 8 5 15 8 15 2 1 3 7 27 21 12 12 13 11 8 6 3 2 4 3 1 4 6 3 9 14 32 43 34 26 18 21 24 26 28 26
46 48 37 37 41 43 45 45 34 42 35 26 25 22 21 13 10 6 12 16 8 8 4 2 2 5 10 7 6 5 6 6 8 4 2 2 1 2 6 17 15 7 22 38 43 9 27 34 30 24 19 25 29 36
42 46 45 36 39 39 42 36 31 33 29 26 25 18 12 9 12 9 11 17 15 5 5 3 2 2 7 9 7 5 4 3 2 0 2 6 5 7 12 11 7 28 18 37 29 37 34 30 28 18 14 21 26 33
40 41 42 40 38 36 36 30 34 27 27 21 15 9 9 7 3 6 7 4 9 7 6 4 2 3 6 6 4 5 1 2 2 4 9 4 6 28 21 11 18 23 41 44 40 30 31 28 21 16 14 19 32 33
40 38 39 40 34 36 28 22 26 25 19 16 11 10 9 5 10 6 6 5 5 5 4 1 1 4 7 4 3 1 2 1 2 4 6 4 5 5 14 35 34 32 21 24 10 24 24 30 24 18 12 13 25 34
40 41 38 34 34 32 17 18 25 18 15 11 10 9 4 8 4 3 3 1 1 3 4 5 4 5 6 5 4 3 2 2 4 11 4 4 2 5 28 35 19 32 31 21 25 33 31 25 22 21 16 11 16 30
41 41 32 31 31 26 17 13 16 14 13 9 6 5 6 6 5 4 3 3 3 5 9 8 5 3 5 5 5 2 2 5 3 5 4 1 5 20 29 29 34 38 38 35 34 30 25 21 18 17 15 11 14 24
38 34 24 24 24 17 10 8 8 8 8 7 8 9 1 2 3 4 0 3 7 5 16 19 7 6 5 4 3 3 5 3 4 6 3 3 8 30 39 41 43 38 32 33 29 24 17 13 15 11 9 8 12 26
30 21 11 18 16 14 6 6 5 11 6 5 4 5 4 9 12 19 18 12 5 14 25 14 7 5 2 2 3 3 5 7 6 2 5 23 17 42 40 42 40 34 30 27 23 17 14 14 15 13 13 10 15 27
23 14 6 14 10 11 9 8 9 11 6 4 4 6 10 12 5 10 7 2 11 14 11 5 4 3 5 4 7 9 6 4 3 4 30 35 43 41 40 39 35 34 29 27 22 16 12 16 15 13 12 8 17 28
23 7 8 11 7 7 8 9 8 4 4 6 7 15 20 18 13 8 3 7 13 11 2 2 5 6 2 5 5 6 3 3 19 35 43 50 46 44 40 36 33 30 27 23 20 15 15 21 16 11 9 5 12 26
21 9 7 9 7 2 5 7 6 5 5 8 9 18 17 18 11 7 3 9 12 4 3 3 6 5 3 5 2 2 13 34 43 49 43 37 43 41 37 36 30 24 22 23 18 17 16 14 13 6 8 8 5 15
13 11 6 4 3 4 3 5 4 6 8 15 18 22 12 13 10 5 2 3 5 5 5 5 4 2 3 2 2 33 45 52 46 36 38 40 38 36 34 32 28 23 19 19 18 14 16 14 11 9 8 6 9 16
12 10 7 4 3 5 4 4 5 8 9 9 13 16 10 5 7 4 3 8 2 2 4 2 1 6 4 3 25 47 50 44 50 49 40 34 30 32 28 28 25 21 20 21 19 14 13 16 15 9 6 9 13 19
10 6 5 6 4 8 5 5 6 8 10 9 12 16 2 2 5 8 9 16 2 2 1 0 9 9 8 13 31 44 46 46 46 48 45 42 34 31 30 30 24 20 18 20 17 16 11 14 13 9 9 14 18 20
5 7 7 5 4 4 8 8 9 13 8 11 14 10 2 1 5 6 12 4 5 3 4 11 21 10 15 22 32 36 37 35 37 38 34 32 25 25 29 31 24 18 13 12 11 9 9 11 9 9 12 15 17 18
5 6 3 4 5 5 8 5 6 5 2 7 7 5 2 2 3 9 5 3 4 1 10 5 15 19 24 26 29 32 30 34 35 35 29 24 26 26 27 23 18 7 8 11 8 4 5 6 4 8 13 14 16 18
7 5 6 7 10 7 6 5 6 6 5 2 1 5 1 1 4 4 4 5 4 3 11 5 6 30 33 32 34 32 35 34 34 30 26 28 30 29 25 22 14 8 5 5 4 4 7 4 3 9 13 15 17 19
6 7 7 7 9 6 5 5 4 0 5 5 4 4 3 2 1 3 3 4 7 9 4 2 17 35 45 39 39 38 33 29 27 25 28 29 30 33 26 19 12 7 7 6 1 1 2 2 6 10 12 14 17 18
8 10 12 11 7 7 6 3 5 6 5 5 5 5 7 3 3 3 3 9 12 17 11 9 13 22 41 43 41 36 31 28 24 25 33 33 25 11 19 16 10 6 5 4 5 2 2 3 7 11 12 13 15 15
6 8 12 12 8 6 6 0 4 1 5 2 2 2 3 3 3 1 7 12 26 20 4 5 24 28 35 36 35 33 30 28 32 23 31 30 19 12 7 4 5 7 7 6 6 6 5 4 7 8 10 11 13 16
12 7 7 6 8 6 3 3 2 2 4 10 8 3 2 3 2 3 9 35 17 1 5 20 33 36 35 31 31 31 31 34 34 22 31 26 24 17 11 10 11 12 11 10 8 7 7 8 8 9 11 14 17 19
9 8 8 6 5 3 3 1 2 1 4 6 6 1 3 4 5 2 18 31 26 10 5 25 34 32 39 37 35 34 33 36 35 31 35 36 32 25 17 7 8 9 7 6 4 4 7 8 9 11 13 14 16 17
8 14 7 6 4 5 6 6 3 5 4 5 6 6 7 8 7 6 21 27 16 10 16 20 27 39 40 34 38 38 31 26 19 12 17 23 23 21 14 7 3 3 3 4 4 4 6 7 9 10 11 12 13 13
6 15 7 4 4 6 7 5 7 9 8 6 7 6 7 7 8 13 14 21 31 27 28 33 36 43 33 35 38 32 28 30 22 18 14 15 15 16 12 9 5 2 0 2 2 3 5 7 6 6 6 7 9 11
13 13 11 6 5 9 7 5 5 5 6 6 6 5 4 6 7 10 26 21 23 38 34 39 42 36 34 28 19 19 11 16 27 19 15 13 16 13 10 9 7 4 2 2 3 3 3 3 3 4 5 7 10 12
7 7 7 8 8 7 8 7 4 4 6 5 7 11 10 7 9 10 27 19 28 50 51 44 36 37 30 26 20 21 18 14 19 18 16 12 10 10 11 10 8 4 2 2 1 2 2 3 3 4 5 7 9 11
Wind_Direction_850mb
325 324 323 321 321 327 328 322 326 328 333 331 323 319 317 315 301 298 279 290 266 244 265 268 265 257 238 192 172 283 37 350 38 69 112 212 128 294 46 127 156 150 151 161 145 186 287 339 40 103 169 74 101 68
329 327 327 326 325 327 325 325 313 330 328 323 321 308 307 302 295 298 291 297 280 243 268 283 271 256 241 257 264 120 120 77 155 91 34 88 65 20 33 161 81 150 160 175 174 201 195 37 76 96 103 113 58 13
333 333 330 330 327 327 331 327 323 326 320 322 315 300 295 310 271 307 289 314 285 271 285 285 6 327 233 228 218 188 128 120 104 91 135 130 84 123 115 273 88 87 140 109 86 192 157 121 83 88 88 81 40 5
334 331 331 331 331 333 330 329 326 322 323 319 318 310 297 305 270 315 272 340 279 292 306 15 59 66 12 213 194 192 87 126 112 79 76 98 109 164 193 216 152 203 131 151 185 84 114 82 128 115 84 50 22 11
333 331 328 332 333 330 330 333 333 333 333 319 323 317 290 297 293 295 287 282 298 270 270 329 37 57 88 106 138 122 135 132 88 67 59 109 116 73 274 80 263 193 172 151 216 193 120 126 128 108 67 42 26 16
332 331 333 332 329 331 331 332 334 335 342 337 331 320 312 298 314 313 289 246 227 225 317 34 30 150 143 133 116 108 95 74 74 78 86 29 12 74 274 257 254 213 197 193 144 143 132 134 121 96 75 54 30 17
333 332 330 332 331 335 336 333 337 343 349 334 335 333 338 321 304 275 314 341 224 196 159 68 140 108 153 129 95 76 56 68 64 89 67 4 357 151 271 252 291 191 137 137 145 132 120 135 135 111 83 61 44 29
332 329 328 331 332 333 334 332 335 346 340 336 337 334 335 341 316 306 304 296 152 143 160 104 35 140 164 91 74 89 68 43 45 85 121 171 34 83 249 249 256 116 138 148 149 150 156 140 138 124 86 59 45 29
335 342 339 335 333 333 333 334 338 338 336 332 333 329 347 6 10 10 37 82 126 84 120 92 76 99 127 71 80 68 71 72 29 318 247 149 222 223 227 232 143 167 145 156 138 129 134 138 140 131 84 54 38 27
330 333 337 335 331 333 334 339 341 341 337 341 355 359 11 26 67 22 23 35 28 35 38 80 53 76 144 131 109 125 134 185 226 209 153 217 249 257 244 196 139 147 151 141 134 133 139 140 138 129 108 63 40 28
331 327 327 330 331 334 335 341 350 345 350 353 23 14 31 27 2 17 25 24 340 23 92 93 126 55 46 98 116 151 143 218 258 214 199 236 258 254 165 170 159 152 140 175 127 140 143 133 115 96 113 68 36 28
324 326 325 329 327 330 328 319 357 358 4 14 354 347 343 357 350 334 26 340 25 276 170 137 162 76 78 92 102 138 279 149 260 145 217 238 243 252 160 154 157 172 179 161 143 139 137 126 95 72 76 68 36 22
317 319 324 323 322 318 321 322 347 355 342 330 347 15 355 335 352 324 31 358 307 173 158 150 104 98 105 86 59 140 261 237 73 214 238 323 287 146 150 147 139 141 138 131 128 125 124 124 103 70 67 57 43 23
319 323 334 347 347 336 325 324 321 332 340 345 349 331 49 300 280 299 130 347 294 257 161 136 81 63 69 90 177 205 228 312 260 228 191 131 128 139 143 142 137 134 129 128 125 125 123 125 119 82 65 67 49 30
324 328 341 354 351 5 14 79 26 351 337 341 345 285 249 249 270 285 276 300 239 177 147 109 99 111 118 155 206 274 251 235 234 192 124 148 147 141 139 144 137 135 138 140 138 131 129 130 133 96 73 89 49 34
330 322 318 344 336 336 7 346 327 340 327 293 257 286 291 289 307 330 294 125 125 131 114 135 123 184 201 206 205 207 224 247 127 126 141 150 146 138 136 137 137 132 127 130 130 121 120 147 142 102 95 88 47 33
328 299 309 330 317 311 288 316 335 326 295 292 265 267 275 282 275 288 317 105 165 148 93 194 213 231 147 216 228 192 295 97 125 130 149 150 143 142 138 136 138 139 138 137 136 120 106 152 117 92 83 122 39 30
317 254 319 326 334 359 299 312 334 310 282 277 287 291 319 297 260 330 48 185 168 149 215 249 266 235 251 300 59 69 98 124 131 130 131 141 141 137 136 133 132 130 133 146 142 116 96 118 174 72 87 114 79 26
287 236 259 257 331 345 320 315 330 298 274 293 301 325 315 318 332 23 69 187 310 240 289 300 273 288 312 273 115 132 137 135 132 136 135 139 144 143 142 141 130 122 116 133 145 127 104 93 80 59 99 99 47 30
225 229 253 179 268 313 303 275 291 275 273 317 311 348 350 23 87 113 27 355 322 218 212 243 275 306 311 352 160 150 147 144 138 133 134 138 146 147 142 150 141 126 117 131 133 110 90 84 71 65 88 61 32 29
193 223 219 203 281 300 276 280 260 258 296 285 310 341 331 298 320 335 334 342 326 233 105 266 30 0 83 126 159 156 155 156 151 143 144 140 137 139 141 150 146 133 121 132 132 118 91 71 73 68 46 44 30 22
269 188 216 223 277 258 265 247 261 295 273 289 316 331 310 286 329 335 332 327 319 351 15 33 23 73 128 139 159 164 159 158 147 144 145 147 147 157 159 158 163 150 139 129 136 122 97 94 79 64 36 28 13 21
204 187 267 227 275 262 272 234 260 252 260 304 315 327 16 334 333 338 322 296 295 344 201 326 18 133 134 138 150 152 154 152 149 148 149 152 149 152 161 163 175 159 143 136 146 141 100 105 84 29 15 8 10 16
174 216 234 219 214 271 283 256 237 261 266 283 345 272 211 25 352 349 296 298 338 147 170 336 107 144 141 144 146 145 148 155 155 161 167 160 156 152 154 150 147 133 89 104 157 163 142 135 29 2 10 14 18 17
214 227 207 215 213 227 243 249 228 295 248 218 209 255 258 156 221 201 266 277 211 192 185 189 151 163 158 156 156 159 164 170 167 166 171 186 173 157 155 153 152 125 67 3 224 173 142 46 0 6 9 13 17 19
236 216 196 208 210 203 226 228 230 226 218 232 218 176 179 168 239 244 253 197 190 168 90 130 174 175 174 169 168 178 185 193 193 175 170 180 180 155 168 159 148 104 96 26 26 35 69 29 15 13 15 22 25 30
244 252 227 229 240 228 242 307 312 223 256 247 266 211 219 226 253 276 290 202 184 181 215 205 186 174 171 180 186 190 196 195 195 184 182 181 174 151 83 72 104 94 99 90 80 72 63 41 15 22 30 32 39 43
240 253 215 207 210 233 239 212 142 284 325 332 314 205 239 290 255 317 140 149 161 91 262 188 184 188 190 190 193 197 193 190 189 194 175 170 163 164 157 121 78 78 92 99 84 75 57 28 24 34 38 41 43 43
232 223 212 222 205 173 212 343 58 124 349 331 338 6 322 275 261 236 169 185 197 283 297 182 183 191 188 187 192 194 198 199 197 184 184 176 173 172 168 145 79 76 80 63 69 61 33 35 39 37 37 36 34 32
242 198 182 201 202 181 183 181 247 286 294 307 311 297 295 267 262 240 187 194 191 203 183 182 184 190 179 182 186 184 182 183 189 205 206 207 195 183 173 166 125 40 34 20 24 23 27 37 36 36 36 33 32 29
190 172 146 130 154 176 180 193 267 270 269 264 256 269 284 284 243 210 192 186 190 178 188 190 188 172 189 194 179 171 179 182 172 172 173 178 182 181 182 188 207 231 335 356 3 30 41 37 31 26 26 27 31 34
189 192 167 147 187 182 175 203 227 235 237 232 226 222 281 266 263 221 214 208 197 190 183 185 196 199 190 162 194 217 190 201 198 186 185 181 176 178 186 200 199 173 116 38 29 40 38 27 14 22 27 32 33 32
155 149 122 120 140 174 193 194 221 260 234 233 234 206 201 225 249 242 190 186 191 188 195 205 210 185 178 208 224 197 186 194 197 190 177 172 167 168 175 177 174 153 80 38 25 18 19 23 18 16 18 20 22 23